Monett, MO

10:09 AM CDT on March 30, 2017 (GMT -0500)
Monett

Weather History for KHFJ - February, 2014

Change the Weather History Date:

Wednesday, February 26, 2014

  Actual Average (KJLN) Record (KJLN)
Temperature  
Mean Temperature 23 °F -  
Max Temperature 32 °F 52 °F 81 °F (1996)
Min Temperature 14 °F 31 °F 8 °F (1960)
Degree Days  
Heating Degree Days 42    
Moisture  
Dew Point 5 °F    
Average Humidity 53    
Maximum Humidity 79    
Minimum Humidity 23    
Precipitation  
Precipitation 0.00 in - - ()
Sea Level Pressure  
Sea Level Pressure 30.20 in    
Wind  
Wind Speed 12 mph (NW)    
Max Wind Speed 22 mph    
Max Gust Speed 31 mph    
Visibility 10 miles    
Events Snow    
Averages and records for this station are not official NWS values.
T = Trace of Precipitation, MM = Missing Value Source: NWS Daily Summary

Daily Weather History Graph

Daily Weather History Graph

Search for Another Location

Airport or City:

Trip Planner

Search our weather history database for the weather conditions in past years. The results will help you decide how hot, cold, wet, or windy it might be!

Date:

Astronomy

Feb. 26, 2014 Rise Set
Actual Time 6:50 AM CST 6:07 PM CST
Civil Twilight 6:24 AM CST 6:33 PM CST
Nautical Twilight 5:54 AM CST 7:03 PM CST
Astronomical Twilight 5:24 AM CST 7:33 PM CST
Moon 4:34 AM CST (2/26) 3:25 PM CST (2/26)
Length of Visible Light 12h 08m
Length of Day
11h 16m
Waning Crescent, 10% of the Moon is Illuminated
Feb 26
Waning Crescent
Mar 1
New
Mar 8
First Quarter
Mar 16
Full
Mar 23
Last Quarter

Hourly Weather History & Observations

Time (CST) Temp. Windchill Dew Point Humidity Pressure Visibility Wind Dir Wind Speed Gust Speed Precip Events Conditions
12:15 AM 21.2 °F 5.6 °F 10.4 °F 63% 30.31 in 10.0 mi North 20.7 mph 28.8 mph N/A   Overcast
12:35 AM 21.2 °F 5.2 °F 10.4 °F 63% 30.32 in 10.0 mi North 21.9 mph 31.1 mph N/A   Overcast
12:55 AM 19.4 °F 3.2 °F 10.4 °F 68% 30.33 in 10.0 mi North 20.7 mph 28.8 mph N/A   Overcast
1:15 AM 19.4 °F 5.5 °F 10.4 °F 68% 30.33 in 10.0 mi North 15.0 mph 26.5 mph N/A   Scattered Clouds
1:35 AM 19.4 °F 5.0 °F 10.4 °F 68% 30.34 in 10.0 mi North 16.1 mph 23.0 mph N/A   Mostly Cloudy
1:55 AM 17.6 °F 3.7 °F 10.4 °F 73% 30.34 in 10.0 mi North 13.8 mph - N/A   Overcast
2:15 AM 17.6 °F 2.7 °F 10.4 °F 73% 30.32 in 10.0 mi North 16.1 mph 20.7 mph N/A   Overcast
2:35 AM 17.6 °F 3.7 °F 8.6 °F 68% 30.32 in 10.0 mi North 13.8 mph 24.2 mph N/A   Scattered Clouds
2:55 AM 17.6 °F 4.3 °F 8.6 °F 68% 30.31 in 10.0 mi North 12.7 mph 21.9 mph N/A   Clear
3:15 AM 15.8 °F 2.1 °F 8.6 °F 73% 30.31 in 10.0 mi North 12.7 mph 17.3 mph N/A   Clear
3:35 AM 15.8 °F 2.7 °F 10.4 °F 79% 30.31 in 10.0 mi North 11.5 mph - N/A   Scattered Clouds
3:55 AM 15.8 °F 2.1 °F 8.6 °F 73% 30.31 in 10.0 mi North 12.7 mph - N/A   Mostly Cloudy
4:15 AM 15.8 °F 2.1 °F 10.4 °F 79% 30.31 in 10.0 mi North 12.7 mph 21.9 mph N/A Snow Light Snow
4:35 AM 15.8 °F 0.9 °F 8.6 °F 73% 30.32 in 10.0 mi North 15.0 mph - N/A Snow Light Snow
4:55 AM 15.8 °F 2.7 °F 8.6 °F 73% 30.30 in 10.0 mi NNE 11.5 mph 19.6 mph N/A Snow Light Snow
5:15 AM 15.8 °F 2.7 °F 10.4 °F 79% 30.30 in 4.0 mi North 11.5 mph 16.1 mph N/A Snow Light Snow
5:35 AM 14.0 °F 1.2 °F 8.6 °F 79% 30.31 in 10.0 mi North 10.4 mph - N/A Snow Light Snow
5:55 AM 14.0 °F 2.9 °F 8.6 °F 79% 30.30 in 10.0 mi North 8.1 mph - N/A   Overcast
6:15 AM 14.0 °F 2.0 °F 8.6 °F 79% 30.30 in 10.0 mi North 9.2 mph - N/A   Overcast
6:35 AM 14.0 °F 2.9 °F 8.6 °F 79% 30.30 in 10.0 mi North 8.1 mph - N/A Snow Light Snow
6:55 AM 14.0 °F 1.2 °F 8.6 °F 79% 30.30 in 10.0 mi North 10.4 mph - N/A   Overcast
7:10 AM 14.0 °F 1.2 °F 8.6 °F 79% 30.31 in 10.0 mi North 10.4 mph - N/A   Overcast
7:35 AM 14.0 °F 1.2 °F 8.6 °F 79% 30.31 in 7.0 mi North 10.4 mph 16.1 mph N/A Snow Light Snow
7:55 AM 14.0 °F 1.2 °F 8.6 °F 79% 30.32 in 7.0 mi North 10.4 mph - N/A   Overcast
8:15 AM 15.8 °F 5.1 °F 10.4 °F 79% 30.31 in 3.0 mi NNW 8.1 mph - N/A Snow Light Snow
8:35 AM 14.0 °F 2.9 °F 8.6 °F 79% 30.30 in 3.0 mi NNE 8.1 mph - N/A Snow Light Snow
8:55 AM 17.6 °F 8.2 °F 6.8 °F 63% 30.30 in 10.0 mi NNE 6.9 mph - N/A   Mostly Cloudy
9:15 AM 17.6 °F 10.7 °F 6.8 °F 63% 30.30 in 10.0 mi NNE 4.6 mph - N/A   Mostly Cloudy
9:35 AM 17.6 °F 7.3 °F 6.8 °F 63% 30.31 in 10.0 mi NNW 8.1 mph - N/A   Mostly Cloudy
9:55 AM 19.4 °F 9.5 °F 5.0 °F 54% 30.31 in 10.0 mi NNW 8.1 mph - N/A   Scattered Clouds
10:15 AM 19.4 °F 10.4 °F 5.0 °F 54% 30.31 in 10.0 mi NNW 6.9 mph - N/A   Scattered Clouds
10:35 AM 19.4 °F 8.6 °F 3.2 °F 49% 30.31 in 10.0 mi WNW 9.2 mph - N/A   Clear
10:55 AM 21.2 °F 11.7 °F 3.2 °F 46% 30.30 in 10.0 mi NNW 8.1 mph - N/A   Clear
11:15 AM 21.2 °F 11.7 °F 1.4 °F 42% 30.30 in 10.0 mi North 8.1 mph - N/A   Clear
11:35 AM 21.2 °F 10.1 °F 3.2 °F 46% 30.29 in 10.0 mi NW 10.4 mph 16.1 mph N/A   Clear
11:50 AM 23.0 °F 11.1 °F 3.2 °F 43% 30.28 in 10.0 mi NW 12.7 mph 16.1 mph N/A   Clear
12:15 PM 23.0 °F 17.0 °F 3.2 °F 43% 30.26 in 10.0 mi North 4.6 mph - N/A   Clear
12:35 PM 23.0 °F 13.9 °F 1.4 °F 39% 30.24 in 10.0 mi NW 8.1 mph - N/A   Clear
12:55 PM 24.8 °F 16.1 °F 3.2 °F 40% 30.22 in 10.0 mi North 8.1 mph - N/A   Clear
1:15 PM 26.6 °F 19.1 °F 3.2 °F 37% 30.20 in 10.0 mi WNW 6.9 mph - N/A   Clear
1:35 PM 26.6 °F 17.5 °F 1.4 °F 34% 30.18 in 10.0 mi WNW 9.2 mph - N/A   Clear
1:55 PM 28.4 °F 22.2 °F 1.4 °F 31% 30.17 in 10.0 mi West 5.8 mph - N/A   Clear
2:15 PM 28.4 °F 20.4 °F 1.4 °F 31% 30.15 in 10.0 mi WNW 8.1 mph - N/A   Clear
2:35 PM 30.2 °F 23.4 °F -0.4 °F 27% 30.14 in 10.0 mi WNW 6.9 mph - N/A   Clear
2:55 PM 30.2 °F 22.6 °F -0.4 °F 27% 30.12 in 10.0 mi West 8.1 mph - N/A   Clear
3:15 PM 30.2 °F 22.6 °F -0.4 °F 27% 30.12 in 10.0 mi WNW 8.1 mph - N/A   Clear
3:35 PM 30.2 °F 21.9 °F -0.4 °F 27% 30.10 in 10.0 mi WNW 9.2 mph - N/A   Clear
3:55 PM 30.2 °F 26.7 °F -0.4 °F 27% 30.09 in 10.0 mi WNW 3.5 mph - N/A   Clear
4:15 PM 32.0 °F 24.8 °F -2.2 °F 23% 30.08 in 10.0 mi WNW 8.1 mph - N/A   Clear
4:35 PM 30.2 °F 24.3 °F -4.0 °F 23% 30.08 in 10.0 mi West 5.8 mph - N/A   Clear
4:55 PM 30.2 °F 22.6 °F -2.2 °F 25% 30.07 in 10.0 mi West 8.1 mph - N/A   Clear
5:15 PM 30.2 °F 21.9 °F -0.4 °F 27% 30.07 in 10.0 mi WNW 9.2 mph - N/A   Clear
5:35 PM 30.2 °F 21.9 °F -0.4 °F 27% 30.07 in 10.0 mi West 9.2 mph - N/A   Clear
5:55 PM 28.4 °F 21.2 °F -0.4 °F 29% 30.07 in 10.0 mi West 6.9 mph - N/A   Clear
6:15 PM 26.6 °F 19.1 °F -0.4 °F 31% 30.07 in 10.0 mi West 6.9 mph - N/A   Clear
6:35 PM 24.8 °F 17.9 °F 1.4 °F 36% 30.07 in 10.0 mi West 5.8 mph - N/A   Clear
6:55 PM 23.0 °F 15.8 °F 1.4 °F 39% 30.07 in 10.0 mi WSW 5.8 mph - N/A   Clear
7:15 PM 23.0 °F 15.8 °F 1.4 °F 39% 30.07 in 10.0 mi West 5.8 mph - N/A   Clear
7:35 PM 23.0 °F 14.7 °F 3.2 °F 43% 30.07 in 10.0 mi West 6.9 mph - N/A   Clear
7:55 PM 23.0 °F 15.8 °F 3.2 °F 43% 30.07 in 10.0 mi West 5.8 mph - N/A   Clear
8:15 PM 23.0 °F 15.8 °F 1.4 °F 39% 30.06 in 10.0 mi WSW 5.8 mph - N/A   Clear
8:35 PM 23.0 °F 15.8 °F 3.2 °F 43% 30.06 in 10.0 mi WSW 5.8 mph - N/A   Clear
8:55 PM 21.2 °F 13.6 °F 3.2 °F 46% 30.07 in 10.0 mi WSW 5.8 mph - N/A   Clear
9:15 PM 21.2 °F 13.6 °F 5.0 °F 50% 30.07 in 10.0 mi SW 5.8 mph - N/A   Clear
9:35 PM 21.2 °F 12.6 °F 5.0 °F 50% 30.07 in 10.0 mi SW 6.9 mph - N/A   Clear
9:55 PM 21.2 °F 12.6 °F 5.0 °F 50% 30.06 in 10.0 mi SW 6.9 mph - N/A   Clear
10:15 PM 21.2 °F 12.6 °F 5.0 °F 50% 30.06 in 10.0 mi SW 6.9 mph - N/A   Clear
10:35 PM 21.2 °F 11.7 °F 5.0 °F 50% 30.05 in 10.0 mi SW 8.1 mph - N/A   Clear
10:55 PM 21.2 °F 11.7 °F 5.0 °F 50% 30.05 in 10.0 mi SW 8.1 mph - N/A   Clear
11:15 PM 23.0 °F 13.1 °F 5.0 °F 46% 30.04 in 10.0 mi SW 9.2 mph - N/A   Clear
11:35 PM 21.2 °F 10.9 °F 6.8 °F 54% 30.04 in 10.0 mi SW 9.2 mph - N/A   Clear
11:55 PM 23.0 °F 13.9 °F 6.8 °F 50% 30.04 in 10.0 mi SW 8.1 mph - N/A   Clear